Home   Weather   Weiz   Past weeks

Flag for Austria Past Weather in Weiz, Styria, Austria — Yesterday and Last 2 Weeks

Now
33 °F

Chilly.


Feels Like: N/A
Forecast: 35 / 65 °F
Wind: N/A

Location: Graz-Thalerhof-Flughafen

Current Time: Apr 24, 2017 at 5:44:22 am

Latest Report: Apr 24, 2017 at 5:00 am


Visibility: 19 mi

Pressure: 30.23 "Hg

Humidity: 84%

Dew Point: 28 °F

Location of WeizLocation

Past Weather in Weiz — Graph

°F

Weiz Temperature Yesterday

Maximum temperature yesterday: 55 °F (at 4:00 pm)
Minimum temperature yesterday: 40 °F (at 7:00 am)
Average temperature yesterday: 48 °F

High & Low Weather Summary for the Past Weeks

 TemperatureHumidityPressure
High74 °F (Apr 10, 4:00 pm)98% (Apr 16, 6:00 am)30.49 "Hg (Apr 16, 6:00 am)
Low25 °F (Apr 21, 7:00 am)24% (Apr 21, 3:00 pm)29.81 "Hg (Apr 13, 4:00 pm)
Average48 °F62%30.09 "Hg
* Reported Apr 9 4:00 am — Apr 24 4:00 am, Weiz, Weather by CustomWeather, © 2017

Note: Actual official high and low records may vary slightly from our data, if they occured in-between our weather recording intervals... More about our weather records

Advertising

Weiz Weather History for the Previous 24 Hours

Scroll right to see more
 ConditionsComfort  
Time TempWeatherWind HumidityBarometerVisibility
4:00 am
Mon, Apr 24
33 °FOvercast.N/A78%30.24 "Hg25 mi
3:00 am34 °FPassing clouds.N/A75%30.24 "Hg22 mi
2:00 am37 °FChilly.N/A70%30.24 "Hg28 mi
1:00 am38 °FPassing clouds.N/A70%30.24 "Hg25 mi
12:00 am41 °FPassing clouds.N/A63%30.23 "Hg28 mi
11:00 pm
Sun, Apr 23
43 °FPassing clouds.N/A56%30.22 "Hg25 mi
10:00 pm46 °FPassing clouds.N/A49%30.19 "Hg31 mi
9:00 pm47 °FOvercast.N/A46%30.17 "Hg28 mi
8:00 pm48 °FPassing clouds.5 mph42%30.14 "Hg28 mi
7:00 pm51 °FScattered clouds.6 mph38%30.11 "Hg28 mi
6:00 pm54 °FScattered clouds.8 mph32%30.09 "Hg19 mi
5:00 pm54 °FScattered clouds.9 mph34%30.09 "Hg25 mi
4:00 pm55 °FOvercast.9 mph31%30.08 "Hg28 mi
3:00 pm53 °FOvercast.10 mph31%30.09 "Hg28 mi
2:00 pm53 °FOvercast.5 mph32%30.10 "Hg28 mi
1:00 pm52 °FPartly sunny.7 mph32%30.11 "Hg28 mi
12:00 pm50 °FPartly sunny.N/A37%30.13 "Hg28 mi
11:00 am51 °FPartly sunny.7 mph39%30.13 "Hg28 mi
10:00 am46 °FScattered clouds.N/A63%30.14 "Hg19 mi
9:00 am46 °FScattered clouds.3 mph71%30.14 "Hg17 mi
8:00 am42 °FScattered clouds.N/A84%30.15 "Hg22 mi
7:00 am40 °FPassing clouds.N/A90%30.12 "Hg16 mi
6:00 am41 °FOvercast.N/A88%30.10 "Hg25 mi
5:00 am42 °FOvercast.N/A88%30.09 "Hg28 mi
Weather by CustomWeather, © 2017

See weather overviewHow to use our weather pages